"Time","Temp","Dewpoint","Humidity","Pressure","Direction","Speed","Gust","Precip","PrecipRate"
"00:04:59","61.6","55.8","81.6","29.93","175","0","0","0.00","0.00"
"00:09:57","61.4","55.5","81","29.93","175","0","0","0.00","0.00"
"00:14:59","61.3","55.4","81","29.93","175","0","0","0.00","0.00"
"00:19:59","61.3","55.4","81","29.93","175","0","0","0.00","0.00"
"00:24:56","61.2","55.3","81","29.93","175","0","0","0.00","0.00"
"00:29:56","61.1","55.3","81.4","29.94","175","0","0","0.00","0.00"
"00:34:57","60.9","55.4","82","29.94","175","0","0","0.00","0.00"
"00:39:58","60.8","55.3","82","29.94","175","0","0","0.00","0.00"
"00:44:59","60.6","55.3","82.7","29.94","175","0","0","0.00","0.00"
"00:49:59","60.4","55.2","83","29.94","175","0","0","0.00","0.00"
"00:54:59","60.2","55","83","29.94","175","0","0","0.00","0.00"
"00:59:59","60.1","55","83.5","29.94","175","0","0","0.00","0.00"
"01:04:59","59.9","55.1","84","29.94","175","0","0","0.00","0.00"
"01:09:57","59.8","55","84","29.94","175","0","0","0.00","0.00"
"01:14:58","59.7","54.9","84","29.94","175","0","0","0.00","0.00"
"01:19:58","59.5","55","84.7","29.94","175","0","1.2","0.00","0.00"
"01:24:58","59.4","54.9","85","29.94","175","0","1.2","0.00","0.00"
"01:29:58","59.4","54.9","85","29.94","175","0","1.2","0.00","0.00"
"01:34:58","59.3","54.9","85.4","29.94","175","0","0","0.00","0.00"
"01:39:59","59.1","54.9","86","29.94","175","0","0","0.00","0.00"
"01:44:56","58.9","54.7","86","29.94","175","0","0","0.00","0.00"
"01:49:56","58.7","54.8","86.9","29.94","175","0","1.2","0.00","0.00"
"01:54:56","58.6","54.7","87","29.94","175","0","0","0.00","0.00"
"01:59:56","58.4","54.5","87","29.94","175","0","0","0.00","0.00"
"02:04:56","58.3","54.8","87.8","29.94","175","0","0","0.00","0.00"
"02:09:58","58.3","54.8","88","29.94","175","0","1.2","0.00","0.00"
"02:14:59","58.2","54.7","88","29.94","175","0","0","0.00","0.00"
"02:19:57","58.1","54.6","88","29.94","175","0","0","0.00","0.00"
"02:24:56","58","54.5","88.2","29.94","175","0","0","0.00","0.00"
"02:29:59","57.9","54.7","89","29.94","175","0","0","0.00","0.00"
"02:34:57","57.9","54.7","89","29.94","175","0","0","0.00","0.00"
"02:39:59","57.8","54.6","89","29.94","175","0","0","0.00","0.00"
"02:44:59","57.7","54.5","89","29.94","175","0","0","0.00","0.00"
"02:49:59","57.6","54.4","89","29.94","175","0","0","0.00","0.00"
"02:54:56","57.5","54.3","89","29.94","175","0","0","0.00","0.00"
"02:59:56","57.4","54.2","89","29.94","175","0","0","0.00","0.00"
"03:04:57","57.3","54.3","89.7","29.94","175","0","0","0.00","0.00"
"03:09:56","57.2","54.3","90","29.94","175","0.1","1.2","0.00","0.00"
"03:14:56","57.1","54.2","90","29.94","175","0.1","1.2","0.00","0.00"
"03:19:56","57","54.1","90","29.93","175","0","0","0.00","0.00"
"03:24:56","56.9","54","90","29.93","175","0","0","0.00","0.00"
"03:29:56","56.8","54.2","90.9","29.93","175","0","0","0.00","0.00"
"03:34:56","56.7","54.1","91","29.93","175","0","0","0.00","0.00"
"03:39:57","56.6","54","91","29.93","175","0","0","0.00","0.00"
"03:44:57","56.5","53.9","91","29.93","175","0","0","0.00","0.00"
"03:49:57","56.4","53.8","91.1","29.93","175","0","0","0.00","0.00"
"03:54:57","56.3","54","92","29.93","175","0","0","0.00","0.00"
"03:59:56","56.2","53.9","92","29.93","175","0","1.2","0.00","0.00"
"04:04:59","56.3","54","92","29.93","175","0","1.2","0.00","0.00"
"04:09:57","56.3","54","92","29.93","175","0","1.2","0.00","0.00"
"04:14:56","56.2","53.9","92","29.93","175","0","0","0.00","0.00"
"04:19:56","56.2","53.9","92","29.93","175","0","0","0.00","0.00"
"04:24:59","56","53.7","92","29.93","175","0","0","0.00","0.00"
"04:29:57","55.9","53.6","92","29.94","175","0","0","0.00","0.00"
"04:34:57","55.8","53.5","92","29.94","175","0","0","0.00","0.00"
"04:39:57","55.8","53.8","92.9","29.94","175","0.2","1.2","0.00","0.00"
"04:44:57","55.8","53.8","93","29.94","175","0","0","0.00","0.00"
"04:49:57","55.7","53.7","93","29.94","175","0","0","0.00","0.00"
"04:54:57","55.7","53.7","93","29.94","175","0","0","0.00","0.00"
"04:59:56","55.7","53.7","93","29.94","175","0","0","0.00","0.00"
"05:04:56","55.5","53.5","93","29.94","175","0","0","0.00","0.00"
"05:09:58","55.4","53.4","93","29.94","175","0","0","0.00","0.00"
"05:14:59","55.3","53.3","93","29.95","175","0","0","0.00","0.00"
"05:19:58","55.3","53.3","93.2","29.95","175","0","0","0.00","0.00"
"05:24:58","55.2","53.3","93.5","29.95","175","0","0","0.00","0.00"
"05:29:58","55.2","53.5","94","29.96","155","0","0","0.00","0.00"
"05:34:58","55.1","53.4","94","29.96","155","0","1.2","0.00","0.00"
"05:39:58","55.2","53.5","94","29.96","259","0","0","0.00","0.00"
"05:44:58","55.1","53.4","94","29.96","259","0","0","0.00","0.00"
"05:49:58","55","53.3","94","29.95","259","0","0","0.00","0.00"
"05:54:58","55","53.3","94","29.95","259","0","0","0.00","0.00"
"05:59:57","54.9","53.2","94","29.96","259","0","0","0.00","0.00"
"06:04:57","54.8","53.1","94","29.96","259","0","0","0.00","0.00"
"06:09:56","54.8","53.1","94","29.96","259","0","0","0.00","0.00"
"06:14:57","54.8","53.1","94","29.96","259","0","0","0.00","0.00"
"06:19:57","54.9","53.4","94.7","29.96","259","0","0","0.00","0.00"
"06:24:56","55","53.6","95","29.96","259","0","0","0.00","0.00"
"06:29:59","55","53.6","95","29.97","259","0","0","0.00","0.00"
"06:34:58","55.2","53.8","95","29.97","259","0","0","0.00","0.00"
"06:39:56","55.4","54","95","29.97","259","0","0","0.00","0.00"
"06:44:59","55.5","54.1","95","29.97","259","0","0","0.00","0.00"
"06:49:59","55.7","54.3","95","29.97","259","0.2","1.2","0.00","0.00"
"06:54:59","56.1","54.7","95","29.97","259","0.4","2.4","0.00","0.00"
"06:59:58","56.5","55.1","95","29.97","259","0","0","0.00","0.00"
"07:04:57","56.8","55.3","94.7","29.97","259","0","0","0.00","0.00"
"07:09:56","57.2","55.5","94","29.97","259","0","0","0.00","0.00"
"07:14:56","57.6","55.8","93.6","29.97","259","0","0","0.00","0.00"
"07:19:59","58.2","56.2","93","29.97","259","0","0","0.00","0.00"
"07:24:59","59","56.7","92","29.97","259","0","0","0.00","0.00"
"07:29:58","59.8","57.4","91.9","29.98","259","0","0","0.00","0.00"
"07:34:58","60.5","57.7","90.6","29.98","259","0","0","0.00","0.00"
"07:39:58","61.2","58.1","89.7","29.98","259","0","0","0.00","0.00"
"07:44:58","61.8","58.2","87.8","29.99","259","0","0","0.00","0.00"
"07:49:58","62.3","58.2","86.5","29.99","259","0","0","0.00","0.00"
"07:54:57","62.6","58.3","85.7","29.99","259","0","0","0.00","0.00"
"07:59:57","63","58.6","85.7","29.99","259","0","0","0.00","0.00"
"08:04:57","63.3","58.7","85","29.98","259","0","0","0.00","0.00"
"08:09:59","63.6","59","85","29.98","259","0","0","0.00","0.00"
"08:14:59","64","59.5","85.5","29.99","259","0","0","0.00","0.00"
"08:19:59","64.4","59.7","84.7","29.99","259","0","0","0.00","0.00"
"08:24:58","64.7","59.5","83.1","29.99","259","0","0","0.00","0.00"
"08:29:57","65.1","59.6","82.4","29.99","259","0","0","0.00","0.00"
"08:34:57","65.8","60.3","82.4","29.99","259","0","0","0.00","0.00"
"08:39:57","66.5","60.5","81.1","29.99","259","0","0","0.00","0.00"
"08:44:57","67","61","80.8","29.99","259","0","0","0.00","0.00"
"08:49:56","67.7","61.1","79.6","29.99","259","0","0","0.00","0.00"
"08:54:56","68.3","61.7","79.5","29.99","259","0","0","0.00","0.00"
"08:59:59","69.1","62.2","78.7","29.99","259","0","0","0.00","0.00"
"09:04:59","69.7","62","76.4","29.99","259","0.5","3.6","0.00","0.00"
"09:09:57","70.4","62.6","76.3","29.99","259","0.3","2.4","0.00","0.00"
"09:14:58","71.1","62.8","75.1","29.99","259","0","1.2","0.00","0.00"
"09:19:57","71.5","62.5","73.2","29.99","259","0.1","2.4","0.00","0.00"
"09:24:56","72","63.1","73.5","29.99","259","0.8","2.4","0.00","0.00"
"09:29:56","72.7","63.2","72.1","29.99","259","0.6","2.4","0.00","0.00"
"09:34:56","73.1","63.6","72.2","29.99","259","0.1","1.2","0.00","0.00"
"09:39:56","73.8","64.2","72","29.99","254","0.1","1.2","0.00","0.00"
"09:44:59","74.5","64.6","71.1","29.99","254","0","1.2","0.00","0.00"
"09:49:58","75","64.5","69.9","29.99","254","0","1.2","0.00","0.00"
"09:54:57","75.5","65.1","70.3","29.99","254","0.1","1.2","0.00","0.00"
"09:59:56","76","65.2","69.1","29.99","254","0","1.2","0.00","0.00"
"10:04:56","76.5","65.3","68.4","29.99","243","1.1","3.6","0.00","0.00"
"10:09:59","76.8","65.2","67.6","29.99","191","0.2","3.5","0.00","0.00"
"10:14:59","77.1","65.6","67.6","29.99","191","0.6","2.4","0.00","0.00"
"10:19:58","77.7","66.4","68.2","29.99","192","0.4","2.4","0.00","0.00"
"10:24:57","78.4","66.4","66.6","29.99","191","1.1","3.6","0.00","0.00"
"10:29:58","79.1","67.1","66.7","29.99","190","0.6","3.5","0.00","0.00"
"10:34:58","79.7","66.9","65","29.98","190","0.9","3.6","0.00","0.00"
"10:39:56","80.2","66.8","63.8","29.98","188","0.7","3.5","0.00","0.00"
"10:44:57","80.8","66.2","61.4","29.98","159","1.7","6","0.00","0.00"
"10:49:58","81.2","66","59.9","29.98","161","2.7","6","0.00","0.00"
"10:54:58","81.6","66.1","59.4","29.98","132","2.3","6","0.00","0.00"
"10:59:58","82","64.9","56.2","29.98","128","2.5","7.2","0.00","0.00"
"11:04:59","82.5","64.8","55.1","29.97","118","2","6","0.00","0.00"
"11:09:59","82.7","64.7","54.6","29.97","129","2.9","8.4","0.00","0.00"
"11:14:56","82.9","64.1","53.2","29.97","141","2","6","0.00","0.00"
"11:19:57","83.5","64.9","53.6","29.97","161","3.4","8.4","0.00","0.00"
"11:24:57","83.8","64.1","51.6","29.97","153","2.1","6","0.00","0.00"
"11:29:57","83.9","64.4","52","29.97","165","3.2","7.2","0.00","0.00"
"11:34:58","83.8","63.9","51.4","29.97","141","2.3","8.4","0.00","0.00"
"11:39:58","83.8","62.9","49.5","29.97","138","2.7","6","0.00","0.00"
"11:44:59","83.8","63.6","50.6","29.98","160","3.5","8.4","0.00","0.00"
"11:49:59","83.9","63.6","50.6","29.98","168","4.8","10.8","0.00","0.00"
"11:54:58","84","63.4","50","29.98","159","3.7","12","0.00","0.00"
"11:59:58","84","63.7","50.7","29.98","157","4.4","10.8","0.00","0.00"
"12:04:59","84","64.2","51.4","29.98","179","5.4","13.2","0.00","0.00"
"12:09:58","84.1","63.9","50.8","29.98","160","5.1","10.8","0.00","0.00"
"12:14:56","84.1","64.8","52.5","29.98","131","2.7","7.2","0.00","0.00"
"12:19:56","84.1","64.8","52.4","29.97","131","2.8","8.4","0.00","0.00"
"12:24:57","83.8","65.5","54.3","29.97","125","2.9","4.8","0.00","0.00"
"12:29:58","84.1","64.9","52.5","29.97","171","4.4","10.8","0.00","0.00"
"12:34:59","84.8","65.4","52.4","29.97","146","3.3","12","0.00","0.00"
"12:39:56","85.2","65","50.9","29.97","125","2.9","7.2","0.00","0.00"
"12:44:57","85.3","64.8","50.5","29.97","135","2.2","7.2","0.00","0.00"
"12:49:58","85.8","66","51.8","29.97","153","2.4","8.4","0.00","0.00"
"12:54:59","86.2","65.5","50.2","29.97","182","4.5","12","0.00","0.00"
"12:59:56","86.5","65.8","50.3","29.97","150","3.5","11.5","0.00","0.00"
"13:04:57","85.8","65","49.9","29.96","139","1.5","7.2","0.00","0.00"
"13:09:57","86","66.7","52.7","29.96","142","3.4","7.2","0.00","0.00"
"13:14:55","86.5","67.2","52.9","29.96","171","3.4","8.4","0.00","0.00"
"13:19:57","87.1","66.2","50","29.96","159","4","12","0.00","0.00"
"13:24:58","86.9","66.4","50.7","29.96","154","4.1","16.1","0.00","0.00"
"13:29:59","86.7","66.3","50.8","29.96","140","3.9","10.8","0.00","0.00"
"13:34:58","86.3","66.9","52.5","29.96","157","4.4","12","0.00","0.00"
"13:39:56","85.7","67","53.8","29.96","123","3.4","7.2","0.00","0.00"
"13:44:58","86.1","68.5","56","29.96","158","3.6","10.8","0.00","0.00"
"13:49:59","86.8","68.3","54.3","29.95","140","2.9","7.2","0.00","0.00"
"13:54:56","86.5","68.5","55.4","29.95","154","3.8","7.2","0.00","0.00"
"13:59:57","86.9","68.9","55.2","29.95","155","4.6","12","0.00","0.00"
"14:04:59","86.3","68.5","55.6","29.94","126","2.8","6.9","0.00","0.00"
"14:09:59","86.7","69","55.8","29.94","154","2.9","12","0.00","0.00"
"14:14:57","87","68.9","55","29.94","108","3.3","11.5","0.00","0.00"
"14:19:58","87","68.7","54.7","29.93","129","3.4","9.6","0.00","0.00"
"14:24:56","86.5","68.7","55.5","29.93","93","2.5","10.8","0.00","0.00"
"14:29:57","86.4","69.2","56.7","29.93","105","1.9","8.4","0.00","0.00"
"14:34:58","86.2","68.6","55.9","29.93","124","3.5","8.4","0.00","0.00"
"14:39:58","85.5","68.4","56.8","29.93","136","3.8","8.4","0.00","0.00"
"14:44:57","85.4","68.7","57.8","29.93","150","2.9","8.4","0.00","0.00"
"14:49:58","86.3","69.5","57.3","29.93","177","4.3","13.2","0.00","0.00"
"14:54:59","87","70.1","57.4","29.93","151","3.9","12.7","0.00","0.00"
"14:59:56","87.2","69.8","56.5","29.93","140","2.6","8.4","0.00","0.00"
"15:04:58","87.1","69.9","56.8","29.92","159","3.7","10.8","0.00","0.00"
"15:09:57","87.7","70.5","56.7","29.92","147","3.8","7.2","0.00","0.00"
"15:14:59","88.3","70.6","55.8","29.92","189","3.9","7.2","0.00","0.00"
"15:19:56","88.3","70.2","55.2","29.92","194","5","10.8","0.00","0.00"
"15:24:57","88","69.9","55.3","29.92","167","4.5","10.8","0.00","0.00"
"15:29:59","87.9","70.2","55.9","29.92","144","2.5","8.1","0.00","0.00"
"15:34:56","88","70.1","55.6","29.92","201","6","13.2","0.00","0.00"
"15:39:58","88","70.3","56.1","29.92","161","2.6","5.8","0.00","0.00"
"15:44:59","87.5","70.2","56.5","29.92","165","4.1","8.4","0.00","0.00"
"15:49:56","87.5","69.8","55.8","29.92","169","4.3","8.4","0.00","0.00"
"15:54:57","87.4","69.8","55.9","29.92","123","2.7","8.1","0.00","0.00"
"15:59:58","87.3","69.8","56.2","29.92","152","4.6","14.4","0.00","0.00"
"16:04:59","87.3","69.1","54.8","29.92","175","6.9","13.2","0.00","0.00"
"16:09:59","86.8","68.8","55.4","29.92","182","6.7","17.3","0.00","0.00"
"16:14:57","86.8","70.2","57.8","29.92","166","5.4","12","0.00","0.00"
"16:19:58","86.8","69.8","57.2","29.91","174","6.8","17.3","0.00","0.00"
"16:24:59","85.5","68.2","56.4","29.91","186","6.7","17.3","0.00","0.00"
"16:29:57","83.9","67.4","57.8","29.92","188","5","12","0.00","0.00"
"16:34:58","82.7","66.7","58.6","29.92","179","6.3","13.2","0.00","0.00"
"16:39:56","82","66.9","60.4","29.92","191","5.4","13.2","0.00","0.00"
"16:44:58","81.3","66.5","60.9","29.93","192","5.7","15","0.00","0.00"
"16:49:59","80.6","66.4","62","29.93","187","4.7","10.8","0.00","0.00"
"16:54:56","80.1","65.9","62","29.93","180","4.2","10.8","0.00","0.00"
"16:59:57","79.8","65.7","62.1","29.93","172","3.7","8.1","0.00","0.00"
"17:04:59","79.7","65.7","62.3","29.93","157","2.1","6","0.00","0.00"
"17:09:58","79.7","66.1","63.2","29.93","165","1.5","3.6","0.00","0.00"
"17:14:56","79.8","66.6","64","29.94","166","2.7","6","0.00","0.00"
"17:19:58","80","66.8","64.2","29.94","189","2.7","6","0.00","0.00"
"17:24:59","80","67.3","65.2","29.94","180","2.1","3.6","0.00","0.00"
"17:29:56","80","67.4","65.5","29.94","180","0.7","3.5","0.00","0.00"
"17:34:58","80","67.9","66.6","29.94","180","0.6","2.4","0.00","0.00"
"17:39:56","80","68.3","67.4","29.94","180","0.3","2.4","0.00","0.00"
"17:44:58","80.2","68.4","67.4","29.94","180","1.1","3.6","0.00","0.00"
"17:49:59","80.3","68.6","67.7","29.93","180","1.4","3.6","0.00","0.00"
"17:54:56","80.4","68.7","67.5","29.93","180","0.9","3.6","0.00","0.00"
"17:59:57","80.5","68.9","67.8","29.93","172","1.3","7.2","0.00","0.00"
"18:04:58","80.8","69.1","67.7","29.93","155","2.6","6.9","0.00","0.00"
"18:09:58","81.1","69.4","67.7","29.93","169","2.6","6","0.00","0.00"
"18:14:56","81.4","69.5","67.2","29.94","160","2.2","6","0.00","0.00"
"18:19:57","81.7","69.7","67","29.94","125","2.8","8.4","0.00","0.00"
"18:24:59","81.9","70","67.2","29.94","148","2.1","6.9","0.00","0.00"
"18:29:56","82","70","67","29.94","133","3.4","8.4","0.00","0.00"
"18:34:58","82","70","67","29.94","129","2.7","7.2","0.00","0.00"
"18:39:56","81.9","70.1","67.5","29.94","141","2.2","6","0.00","0.00"
"18:44:57","81.7","69.9","67.5","29.95","143","0.9","2.4","0.00","0.00"
"18:49:58","81.3","69.7","68","29.95","143","1.3","4.8","0.00","0.00"
"18:54:56","81","69.6","68.5","29.95","143","0.8","2.4","0.00","0.00"
"18:59:57","80.7","69.7","69.2","29.95","143","0.9","3.6","0.00","0.00"
"19:04:58","80.7","69.8","69.5","29.95","143","0.6","2.4","0.00","0.00"
"19:09:58","80.6","70","70.3","29.95","145","1.7","8.4","0.00","0.00"
"19:14:56","80.7","70.6","71.3","29.95","145","2.9","6","0.00","0.00"
"19:19:58","80.8","70.9","72","29.95","169","4.8","16.1","0.00","0.00"
"19:24:59","80.8","70.9","72.2","29.95","168","3.9","8.4","0.00","0.00"
"19:29:57","80.6","70.8","72.2","29.95","159","3.9","12","0.00","0.00"
"19:34:58","80.5","70.6","72","29.94","167","2.4","10.8","0.00","0.00"
"19:39:56","80.3","70.8","72.8","29.94","163","4","10.8","0.00","0.00"
"19:44:57","80.2","71","73.6","29.95","139","3.2","6.9","0.00","0.00"
"19:49:58","80","71","74","29.95","139","1.8","6","0.00","0.00"
"19:54:55","79.8","70.8","74","29.95","196","4","15","0.00","0.00"
"19:59:57","79.5","70.2","73.1","29.96","199","4.7","17.3","0.00","0.00"
"20:04:57","78.8","69.8","73.9","29.96","198","4.6","8.1","0.00","0.00"
"20:09:59","78.1","69.5","75","29.96","187","5.6","13.2","0.00","0.00"
"20:14:56","77.5","68.8","74.7","29.96","186","4.5","10.8","0.00","0.00"
"20:19:56","76.9","67.9","73.8","29.96","183","4.9","10.8","0.00","0.00"
"20:24:57","76.3","67.4","73.8","29.96","191","4.9","13.2","0.00","0.00"
"20:29:57","75.7","66.8","74","29.97","188","5.7","13.2","0.00","0.00"
"20:34:58","75.2","66.5","74.5","29.97","207","4.1","12.7","0.00","0.00"
"20:39:59","74.7","66.2","74.9","29.97","243","2.8","8.4","0.00","0.00"
"20:44:59","74.3","66.2","76","29.99","231","1.7","4.8","0.00","0.00"
"20:49:56","74.1","66.2","76.3","29.99","243","0.8","3.6","0.00","0.00"
"20:54:57","74","66.3","77","29.99","343","2.1","6","0.00","0.00"
"20:59:57","73.9","66.3","77.3","30.00","350","0.6","3.5","0.00","0.00"
"21:04:57","73.7","66.3","77.8","30.00","320","0.5","3.6","0.00","0.00"
"21:09:59","73.4","66.1","78","30.00","236","0.3","3.5","0.00","0.00"
"21:14:57","73.1","65.9","78.4","30.00","236","0","0","0.00","0.00"
"21:19:58","72.9","66","79","30.00","236","0.6","2.4","0.00","0.00"
"21:24:58","72.7","66","79.3","30.00","235","2.3","3.6","0.00","0.00"
"21:29:59","72.5","66","80","30.00","222","2.5","4.8","0.00","0.00"
"21:34:59","72.3","66","80.5","30.00","204","1.3","4.6","0.00","0.00"
"21:39:56","72.2","65.9","80.7","30.00","204","0.9","3.6","0.00","0.00"
"21:44:57","72.2","66.3","81.8","30.00","204","0.2","2.4","0.02","0.02"
"21:49:57","71.8","66.9","84.6","30.00","205","1.3","3.6","0.02","0.02"
"21:54:57","71.1","66.6","85.7","30.00","205","0.1","3.5","0.02","0.02"
"21:59:57","70.8","66.8","87.3","30.01","205","0","0","0.02","0.02"
"22:04:58","70.5","67.1","88.9","30.01","205","0","0","0.03","0.03"
"22:09:56","70.2","67.1","90","30.01","205","0.6","2.4","0.03","0.03"
"22:14:58","69.8","67.1","90.9","30.02","205","0.5","2.4","0.03","0.03"
"22:19:58","69.5","66.8","91","30.02","205","0.6","3.6","0.03","0.03"
"22:24:59","69.3","66.8","91.7","30.02","278","1.2","6","0.03","0.03"
"22:29:59","69.2","66.8","92","30.02","350","0.8","5.8","0.04","0.04"
"22:34:59","69","66.6","92","30.02","344","2.3","8.4","0.07","0.06"
"22:39:56","68.9","66.6","92.6","30.02","355","1.3","3.6","0.08","0.08"
"22:44:56","68.6","66.5","93","30.03","346","0.6","3.6","0.08","0.08"
"22:49:57","68.5","66.5","93.2","30.03","345","0.9","2.4","0.08","0.06"
"22:54:57","68.4","66.6","94","30.03","336","0.9","3.6","0.08","0.06"
"22:59:57","68.2","66.4","94","30.03","296","0.8","3.6","0.08","0.06"
"23:04:57","68.1","66.3","94","30.03","0","2.3","7.2","0.15","0.11"
"23:09:56","68","66.3","94.1","30.03","356","2.1","6","0.19","0.15"
"23:14:57","67.9","66.4","95","30.03","355","1.6","5.8","0.23","0.20"
"23:19:57","67.8","66.3","95","30.02","337","1.2","3.6","0.26","0.23"
"23:24:57","67.8","66.3","95","30.02","288","0.8","3.6","0.27","0.24"
"23:29:58","67.7","66.3","95.4","30.02","288","1.3","3.6","0.28","0.24"
"23:34:59","67.8","66.6","96","30.02","326","0.9","4.8","0.28","0.24"
"23:39:56","67.7","66.5","96","30.02","344","0.7","3.5","0.28","0.21"
"23:44:56","67.7","66.5","96","30.03","344","0.8","3.6","0.28","0.20"
